Location: *
(46.4000°N, 12.6667°E)
Time: 18:27:55
(UTC+00:00)

STARLINK-1227 - Pass Details

Date: 09 April 2020
Orbit: 376 x 383 km, 53.0° (Epoch: 03 June)

Event Time Altitude Azimuth Distance (km) Brightness Sun altitude
Rises 18:06:44 0° 300° (WNW) 2,215 8.7 -3.7°
Reaches altitude 10° 18:08:52 10° 310° (NW) 1,363 6.9 -4.1°
Maximum altitude 18:11:42 34° 18° (NNE) 623 3.9 -4.5°
Drops below altitude 10° 18:14:31 10° 87° (E) 1,356 5.0 -5.0°
Enters shadow 18:15:17 - 92° (E) 1,655 5.4 -5.1°
